Location: Akgöl Batakl???
(38.9482°N, 31.8837°E)
Time: 20:08:38
(UTC+00:00)

SL-08 R/B - Pass Details

Date: 08 May 2026
Orbit: 666 x 729 km, 98.5° (Epoch: 8 June)

Event Time Altitude Azimuth Distance (km) Brightness Sun altitude
Rises 18:08:37 0° 16° (NNE) 3,139 7.0 -13.8°
Reaches altitude 10° 18:10:56 10° 19° (NNE) 2,206 6.1 -14.2°
Maximum altitude 18:15:45 67° 102° (ESE) 768 3.3 -14.9°
Drops below altitude 10° 18:20:27 10° 185° (S) 2,152 5.5 -15.6°
Enters shadow 18:21:05 - 186° (S) 2,410 5.8 -15.7°
